Location: *
(51.8167°N, 12.5000°E)
Time: 04:44:29
(UTC+00:00)

GP-B - Pass Details

Date: 16 September 2019
Orbit: 632 x 635 km, 89.8° (Epoch: 23 October)

Event Time Altitude Azimuth Distance (km) Brightness Sun altitude
Rises 18:21:12 0° 1° (N) 2,946 6.8 -9.6°
Reaches altitude 10° 18:23:26 10° 1° (N) 2,032 5.9 -9.9°
Maximum altitude 18:27:55 89° 272° (W) 642 3.1 -10.6°
Drops below altitude 10° 18:32:21 10° 184° (S) 2,013 5.5 -11.3°
Sets 18:34:33 0° 184° (S) 2,916 6.4 -11.6°
